Date String (YYYY-MM-DD hh:mm:ss) UTC,Instrument flags,Ambient pressure (hPa),Sample flow (lpm),Bypass flow (lpm),Sample temperature (°C),Ambient temperature (°C),ASC tube jacket temperature (°C),LED temperature (°C),Box temperature (°C),Sample RH (%),Span deviation,Mass concentration (μg/m³),Mass concentration (μg/m³),Mass concentration (μg/m³)
DateTimeUTC,F1_M11,P_M11,Q1_M11,Q2_M11,T1_M11,T2_M11,T3_M11,T4_M11,T5_M11,U1_M11,ZSPAN_M11,X0_M11,X2_M11,X1_M11
2022-07-27 01:00:00,,0827.9,5.00,0.00,29.8,27.3,00.0,38.3,31.4,33.6,0000.0,0020.13,0009.79,0008.71
2022-07-27 01:01:00,,0827.9,5.01,0.00,29.8,27.3,00.0,38.3,31.3,34.3,0000.0,0020.51,0009.79,0008.71
2022-07-27 01:02:00,,0827.8,4.99,0.00,29.7,27.4,00.0,38.3,31.3,34.0,0000.0,0020.35,0009.76,0008.74
2022-07-27 01:03:00,,0827.9,5.01,0.00,29.7,27.6,00.0,38.3,31.3,34.4,0000.0,0019.30,0009.74,0008.76
2022-07-27 01:04:00,,0827.8,5.00,0.00,29.7,27.8,00.0,38.3,31.4,33.8,0000.0,0018.95,0009.79,0008.78
2022-07-27 01:05:00,,0827.9,5.00,0.00,29.7,28.0,00.0,38.4,31.5,33.3,0000.0,0018.88,0009.84,0008.80
2022-07-27 01:06:00,,0827.8,5.00,0.00,29.8,28.1,00.0,38.4,31.5,33.5,0000.0,0018.40,0009.93,0008.84
2022-07-27 01:07:00,,0827.9,5.00,0.00,29.8,28.3,00.0,38.4,31.6,33.9,0000.0,0017.82,0009.96,0008.87
2022-07-27 01:08:00,,0827.9,5.01,0.00,29.8,28.4,00.0,38.4,31.7,33.4,0000.0,0016.77,0009.95,0008.88
2022-07-27 01:09:00,,0827.9,5.00,0.00,29.8,27.9,00.0,38.4,31.6,33.4,0000.0,0016.60,0009.96,0008.91
2022-07-27 01:10:00,,0828.0,5.00,0.00,29.8,27.4,00.0,38.3,31.4,33.7,0000.0,0016.93,0010.03,0008.92
2022-07-27 01:11:00,,0827.9,5.00,0.00,29.7,27.2,00.0,38.3,31.4,34.0,0000.0,0017.42,0010.11,0008.93
2022-07-27 01:12:00,,0827.9,4.99,0.00,29.7,27.2,00.0,38.3,31.2,34.5,0000.0,0018.45,0010.16,0008.93
2022-07-27 01:13:00,,0827.9,5.01,0.00,29.6,27.4,00.0,38.3,31.3,34.0,0000.0,0018.31,0010.18,0008.91
2022-07-27 01:14:00,,0828.0,5.00,0.00,29.7,27.6,00.0,38.3,31.3,34.6,0000.0,0018.70,0010.16,0008.90
2022-07-27 01:15:00,,0828.0,5.00,0.00,29.7,27.8,00.0,38.3,31.4,34.3,0000.0,0018.78,0010.11,0008.87
2022-07-27 01:16:00,,0828.1,5.00,0.00,29.7,28.0,00.0,38.3,31.5,34.0,0000.0,0019.08,0010.07,0008.85
2022-07-27 01:17:00,,0828.0,5.00,0.00,29.7,28.2,00.0,38.3,31.5,33.8,0000.0,0018.92,0010.01,0008.83
2022-07-27 01:18:00,,0828.0,5.00,0.00,29.8,28.3,00.0,38.3,31.6,34.3,0000.0,0018.75,0010.01,0008.82
2022-07-27 01:19:00,,0828.1,5.00,0.00,29.8,28.3,00.0,38.3,31.6,34.4,0000.0,0018.68,0010.01,0008.81
2022-07-27 01:20:00,,0828.1,5.00,0.00,29.8,27.7,00.0,38.3,31.5,34.5,0000.0,0019.13,0010.04,0008.79
2022-07-27 01:21:00,,0828.1,5.00,0.00,29.7,27.2,00.0,38.3,31.4,34.8,0000.0,0019.03,0009.98,0008.77
2022-07-27 01:22:00,,0828.1,5.01,0.00,29.7,27.2,00.0,38.3,31.4,35.2,0000.0,0019.28,0009.93,0008.75
2022-07-27 01:23:00,,0828.2,4.99,0.00,29.8,27.3,00.0,38.3,31.4,34.5,0000.0,0018.29,0009.86,0008.73
2022-07-27 01:24:00,,0828.1,5.01,0.00,29.9,27.4,00.0,38.3,31.4,33.8,0000.0,0019.06,0009.83,0008.71
2022-07-27 01:25:00,,0828.3,5.00,0.00,30.0,27.6,00.0,38.3,31.4,34.2,0000.0,0019.36,0009.79,0008.69
2022-07-27 01:26:00,,0828.2,5.00,0.00,30.0,27.8,00.0,38.3,31.5,34.6,0000.0,0019.81,0009.77,0008.68
2022-07-27 01:27:00,,0828.2,5.00,0.00,30.0,28.0,00.0,38.3,31.6,34.4,0000.0,0020.01,0009.76,0008.69
2022-07-27 01:28:00,,0828.2,5.00,0.00,30.1,28.2,00.0,38.4,31.6,34.3,0000.0,0020.87,0009.77,0008.69
2022-07-27 01:29:00,,0828.2,5.00,0.00,30.1,28.4,00.0,38.4,31.7,34.3,0000.0,0021.82,0009.77,0008.67
2022-07-27 01:30:00,,0828.2,5.00,0.00,30.1,28.4,00.0,38.5,31.7,33.7,0000.0,0021.60,0009.74,0008.66
2022-07-27 01:31:00,,0828.2,5.00,0.00,30.1,27.9,00.0,38.4,31.6,33.9,0000.0,0021.13,0009.70,0008.64
2022-07-27 01:32:00,,0828.2,5.01,0.00,30.0,27.4,00.0,38.4,31.5,34.4,0000.0,0021.82,0009.76,0008.65
2022-07-27 01:33:00,,0828.2,4.99,0.00,30.0,27.2,00.0,38.4,31.4,33.8,0000.0,0021.23,0009.78,0008.64
2022-07-27 01:34:00,,0828.3,5.01,0.00,29.9,27.3,00.0,38.4,31.3,33.7,0000.0,0020.68,0009.77,0008.64
2022-07-27 01:35:00,,0828.3,4.99,0.00,29.9,27.4,00.0,38.4,31.4,33.5,0000.0,0019.51,0009.79,0008.67
2022-07-27 01:36:00,,0828.3,5.01,0.00,29.9,27.6,00.0,38.4,31.4,33.7,0000.0,0019.89,0009.79,0008.68
2022-07-27 01:37:00,,0828.3,5.00,0.00,29.9,27.8,00.0,38.4,31.5,34.5,0000.1,0019.47,0009.77,0008.69
2022-07-27 01:38:00,,0828.4,5.01,0.00,29.9,28.0,00.0,38.4,31.5,35.0,0000.0,0018.51,0009.72,0008.67
2022-07-27 01:39:00,,0828.3,4.98,0.00,30.0,28.2,00.0,38.5,31.6,34.5,0000.0,0018.14,0009.69,0008.66
2022-07-27 01:40:00,,0828.4,5.00,0.00,30.0,28.4,00.0,38.5,31.7,34.7,0000.1,0017.09,0009.65,0008.64
2022-07-27 01:41:00,,0828.3,5.01,0.00,30.1,28.5,00.0,38.5,31.8,35.1,0000.3,0017.85,0009.63,0008.63
2022-07-27 01:42:00,,0828.4,4.99,0.00,30.3,28.4,00.0,38.5,31.9,34.4,0000.7,0017.83,0009.59,0008.62
2022-07-27 01:43:00,,0828.4,5.01,0.00,30.4,27.8,00.0,38.5,31.8,34.1,0000.7,0017.18,0009.53,0008.61
2022-07-27 01:44:00,,0828.4,4.99,0.00,30.5,27.3,00.0,38.5,31.7,34.2,0000.8,0017.57,0009.51,0008.60
2022-07-27 01:45:00,,0828.4,5.01,0.00,30.4,27.2,00.0,38.5,31.5,33.7,0001.1,0017.87,0009.51,0008.59
2022-07-27 01:46:00,,0828.3,4.99,0.00,30.4,27.3,00.0,38.5,31.4,34.1,0000.4,0017.97,0009.44,0008.54
2022-07-27 01:47:00,,0828.4,5.01,0.00,30.4,27.5,00.0,38.6,31.5,33.8,0000.0,0016.88,0009.40,0008.51
2022-07-27 01:48:00,,0828.4,5.00,0.00,30.3,27.7,00.0,38.6,31.5,33.9,0000.0,0017.53,0009.41,0008.50
2022-07-27 01:49:00,,0828.4,4.99,0.00,30.3,27.9,00.0,38.6,31.6,33.7,0000.0,0019.09,0009.40,0008.48
2022-07-27 01:50:00,,0828.4,5.00,0.00,30.3,28.1,00.0,38.6,31.7,33.5,0000.0,0019.14,0009.41,0008.47
2022-07-27 01:51:00,,0828.5,5.00,0.00,30.4,28.2,00.0,38.7,31.7,33.9,0000.7,0019.40,0009.43,0008.47
2022-07-27 01:52:00,,0828.5,5.00,0.00,30.4,28.4,00.0,38.7,31.8,33.3,0001.0,0018.77,0009.46,0008.45
2022-07-27 01:53:00,,0828.9,4.99,0.00,30.4,28.5,00.0,38.7,31.9,33.4,0000.8,0019.24,0009.52,0008.44
2022-07-27 01:54:00,,0829.0,4.99,0.00,30.4,28.2,00.0,38.7,31.8,33.1,0000.4,0019.11,0009.53,0008.43
2022-07-27 01:55:00,,0828.9,5.01,0.00,30.3,27.6,00.0,38.7,31.7,33.6,0000.1,0019.15,0009.50,0008.42
2022-07-27 01:56:00,,0829.1,4.99,0.00,30.3,27.2,00.0,38.7,31.6,33.7,0000.0,0019.23,0009.52,0008.42
2022-07-27 01:57:00,,0829.0,5.00,0.00,30.2,27.2,00.0,38.7,31.4,33.9,0000.0,0019.28,0009.55,0008.43
2022-07-27 01:58:00,,0828.7,5.01,0.00,30.1,27.3,00.0,38.6,31.4,33.7,0000.0,0019.52,0009.59,0008.44
2022-07-27 01:59:00,,0828.6,4.99,0.00,30.1,27.5,00.0,38.6,31.5,33.9,0000.0,0018.33,0009.56,0008.43
